,,,PA_Meas_PMT16A,,PR_Meas_QMR101_102,,RH_Meas_QMH101,,SR_Meas_QMS101,,TA_Meas_QMH101,,GenWind,,GenWind,
date,time,status,PA,status,PR,status,RH,status,SR,status,TA,status,DirAvg,status,SpdAvg,
2008-06-20, 00:00:05,VALID,1011.35,VALID,0,VALID,96.2446,VALID,0.105969,VALID,22.9714,VALID,87,VALID,0.260156,
2008-06-20, 00:01:05,VALID,1011.36,VALID,0,VALID,96.2446,VALID,0.105969,VALID,22.9519,VALID,87,VALID,0.246875,
2008-06-20, 00:02:05,VALID,1011.32,VALID,0,VALID,96.2523,VALID,0.105969,VALID,22.9714,VALID,87,VALID,0.414453,
2008-06-20, 00:03:05,VALID,1011.34,VALID,0,VALID,96.2446,VALID,0.105969,VALID,22.9909,VALID,87,VALID,0.548828,
2008-06-20, 00:04:05,VALID,1011.34,VALID,0,VALID,96.2599,VALID,0.105969,VALID,23.0121,VALID,87,VALID,0.486719,
2008-06-20, 00:05:05,VALID,1011.3,VALID,0,VALID,96.237,VALID,0.105969,VALID,22.9909,VALID,87,VALID,0.516016,
2008-06-20, 00:06:05,VALID,1011.27,VALID,0,VALID,96.2446,VALID,0.105969,VALID,22.9909,VALID,65,VALID,0.309375,
2008-06-20, 00:07:05,VALID,1011.24,VALID,0,VALID,96.2294,VALID,0.105969,VALID,23.0298,VALID,97,VALID,0.760547,
2008-06-20, 00:08:05,VALID,1011.21,VALID,0,VALID,96.2294,VALID,0.105969,VALID,23.0121,VALID,83,VALID,0.7875,
2008-06-20, 00:09:05,VALID,1011.21,VALID,0,VALID,96.2294,VALID,0.105969,VALID,23.0103,VALID,109,VALID,0.778516,
2008-06-20, 00:10:05,VALID,1011.2,VALID,0,VALID,96.237,VALID,0.105969,VALID,22.9714,VALID,116,VALID,0.818359,
2008-06-20, 00:11:05,VALID,1011.18,VALID,0,VALID,96.237,VALID,0.105969,VALID,22.9909,VALID,124,VALID,0.6875,
2008-06-20, 00:12:05,VALID,1011.18,VALID,0,VALID,96.2218,VALID,0.105969,VALID,23.0121,VALID,101,VALID,0.638672,
2008-06-20, 00:13:05,VALID,1011.19,VALID,0,VALID,96.2294,VALID,0.105969,VALID,22.9909,VALID,108,VALID,0.551562,
2008-06-20, 00:14:05,VALID,1011.18,VALID,0,VALID,96.2294,VALID,0,VALID,23.0138,VALID,107,VALID,0.569922,
2008-06-20, 00:15:05,VALID,1011.18,VALID,0,VALID,96.2141,VALID,0,VALID,22.9943,VALID,100,VALID,0.605078,
2008-06-20, 00:16:05,VALID,1011.19,VALID,0,VALID,96.2141,VALID,0,VALID,23.0121,VALID,97,VALID,0.441797,
2008-06-20, 00:17:05,VALID,1011.19,VALID,0,VALID,96.2294,VALID,0,VALID,22.9943,VALID,73,VALID,0.485156,
2008-06-20, 00:18:05,VALID,1011.17,VALID,0,VALID,96.1913,VALID,0,VALID,22.9536,VALID,53,VALID,0.525,
2008-06-20, 00:19:04,VALID,1011.18,VALID,0,VALID,96.2065,VALID,0,VALID,22.9342,VALID,65,VALID,0.508203,
2008-06-20, 00:20:04,VALID,1011.16,VALID,0,VALID,96.2218,VALID,0,VALID,22.9342,VALID,67,VALID,0.351953,
2008-06-20, 00:21:04,VALID,1011.17,VALID,0,VALID,96.2141,VALID,0,VALID,22.9359,VALID,98,VALID,0.388672,
2008-06-20, 00:22:04,VALID,1011.15,VALID,0,VALID,96.2065,VALID,0,VALID,22.9147,VALID,95,VALID,0.7875,
2008-06-20, 00:23:04,VALID,1011.15,VALID,0,VALID,96.2065,VALID,0,VALID,22.9554,VALID,98,VALID,0.928906,
2008-06-20, 00:24:04,VALID,1011.19,VALID,0,VALID,96.1836,VALID,0,VALID,22.9536,VALID,108,VALID,1.10391,
2008-06-20, 00:25:04,VALID,1011.19,VALID,0,VALID,96.1989,VALID,0,VALID,23.0333,VALID,108,VALID,0.834766,
2008-06-20, 00:26:04,VALID,1011.18,VALID,0,VALID,96.1836,VALID,0,VALID,22.9731,VALID,103,VALID,1.7375,
2008-06-20, 00:27:04,VALID,1011.16,VALID,0,VALID,96.1608,VALID,0,VALID,22.9926,VALID,103,VALID,1.17461,
2008-06-20, 00:28:04,VALID,1011.13,VALID,0,VALID,96.1608,VALID,0,VALID,23.0121,VALID,93,VALID,0.882031,
2008-06-20, 00:29:04,VALID,1011.11,VALID,0,VALID,96.1531,VALID,0,VALID,23.0121,VALID,94,VALID,0.744141,
2008-06-20, 00:30:04,VALID,1011.08,VALID,0,VALID,96.1455,VALID,0,VALID,23.0121,VALID,107,VALID,0.811719,
2008-06-20, 00:31:04,VALID,1011.08,VALID,0,VALID,96.1302,VALID,0,VALID,22.9926,VALID,91,VALID,0.867578,
2008-06-20, 00:32:04,VALID,1011.08,VALID,0,VALID,96.0921,VALID,0,VALID,22.9731,VALID,103,VALID,0.677734,
2008-06-20, 00:33:04,VALID,1011.06,VALID,0,VALID,96.1074,VALID,0,VALID,22.9926,VALID,110,VALID,0.298438,
2008-06-20, 00:34:04,VALID,1011.09,VALID,0,VALID,96.0997,VALID,0,VALID,23.0121,VALID,97,VALID,0.166406,
2008-06-20, 00:35:04,VALID,1011.08,VALID,0,VALID,96.1074,VALID,0,VALID,22.9943,VALID,74,VALID,0.451562,
2008-06-20, 00:36:04,VALID,1011.1,VALID,0,VALID,96.0769,VALID,0,VALID,22.9342,VALID,90,VALID,0.871094,
2008-06-20, 00:37:04,VALID,1011.08,VALID,0,VALID,96.0387,VALID,0.105969,VALID,22.9536,VALID,62,VALID,0.712109,
2008-06-20, 00:38:04,VALID,1011.11,VALID,0,VALID,96.0464,VALID,0,VALID,22.9342,VALID,83,VALID,0.752344,
2008-06-20, 00:39:04,VALID,1011.07,VALID,0,VALID,96.0311,VALID,0,VALID,22.9342,VALID,84,VALID,1.08281,
2008-06-20, 00:40:04,VALID,1011.1,VALID,0,VALID,96.0464,VALID,0,VALID,22.9731,VALID,84,VALID,0.345703,
2008-06-20, 00:41:04,VALID,1011.09,VALID,0,VALID,96.0311,VALID,0,VALID,22.9342,VALID,72,VALID,0.512891,
2008-06-20, 00:42:04,VALID,1011.09,VALID,0,VALID,96.0159,VALID,0,VALID,22.9147,VALID,70,VALID,0.490625,
2008-06-20, 00:43:04,VALID,1011.08,VALID,0,VALID,95.993,VALID,0,VALID,22.8952,VALID,79,VALID,0.754297,
2008-06-20, 00:44:04,VALID,1011.07,VALID,0,VALID,96.0006,VALID,0,VALID,22.8952,VALID,54,VALID,0.464063,
2008-06-20, 00:45:04,VALID,1011.08,VALID,0,VALID,95.993,VALID,0,VALID,22.8952,VALID,54,VALID,0.308203,
2008-06-20, 00:46:04,VALID,1011.07,VALID,0,VALID,96.0082,VALID,0,VALID,22.8775,VALID,54,VALID,0.255469,
2008-06-20, 00:47:04,VALID,1011.09,VALID,0,VALID,96.0006,VALID,0,VALID,22.858,VALID,48,VALID,0.420312,
2008-06-20, 00:48:04,VALID,1011.09,VALID,0,VALID,95.993,VALID,0,VALID,22.8368,VALID,48,VALID,0.270312,
2008-06-20, 00:49:04,VALID,1011.09,VALID,0,VALID,96.0235,VALID,0,VALID,22.858,VALID,48,VALID,0.194922,
2008-06-20, 00:50:04,VALID,1011.13,VALID,0,VALID,96.0311,VALID,0,VALID,22.8385,VALID,26,VALID,0.366016,
2008-06-20, 00:51:04,VALID,1011.12,VALID,0,VALID,96.0464,VALID,0,VALID,22.858,VALID,19,VALID,0.402734,
2008-06-20, 00:52:04,VALID,1011.14,VALID,0,VALID,96.0464,VALID,0,VALID,22.8368,VALID,1,VALID,0.514844,
2008-06-20, 00:53:04,VALID,1011.13,VALID,0,VALID,96.0692,VALID,0,VALID,22.858,VALID,358,VALID,0.221875,
2008-06-20, 00:54:04,VALID,1011.15,VALID,0,VALID,96.0769,VALID,0,VALID,22.8368,VALID,358,VALID,0.228906,
2008-06-20, 00:55:04,VALID,1011.13,VALID,0,VALID,96.0769,VALID,0,VALID,22.8385,VALID,358,VALID,0.0140625,
2008-06-20, 00:56:04,VALID,1011.14,VALID,0,VALID,96.0845,VALID,0,VALID,22.8173,VALID,358,VALID,0,
2008-06-20, 00:57:04,VALID,1011.14,VALID,0,VALID,96.1074,VALID,0,VALID,22.8173,VALID,358,VALID,0,
2008-06-20, 00:58:04,VALID,1011.15,VALID,0,VALID,96.1074,VALID,0,VALID,22.7995,VALID,358,VALID,0.0738281,
2008-06-20, 00:59:04,VALID,1011.14,VALID,0,VALID,96.115,VALID,0,VALID,22.7978,VALID,358,VALID,0,
2008-06-20, 01:00:04,VALID,1011.1,VALID,0,VALID,96.1074,VALID,0,VALID,22.7783,VALID,358,VALID,0.140234,
2008-06-20, 01:01:04,VALID,1011.08,VALID,0,VALID,96.1226,VALID,0,VALID,22.7783,VALID,358,VALID,0.326562,
2008-06-20, 01:02:04,VALID,1011.09,VALID,0,VALID,96.1226,VALID,0,VALID,22.7978,VALID,11,VALID,0.392188,
2008-06-20, 01:03:04,VALID,1011.07,VALID,0,VALID,96.115,VALID,0,VALID,22.7978,VALID,81,VALID,0.441797,
2008-06-20, 01:04:04,VALID,1011.08,VALID,0,VALID,96.1302,VALID,0,VALID,22.819,VALID,81,VALID,0.354688,
2008-06-20, 01:05:04,VALID,1011.04,VALID,0,VALID,96.1455,VALID,0,VALID,22.8385,VALID,82,VALID,0.382422,
2008-06-20, 01:06:04,VALID,1011.08,VALID,0,VALID,96.1455,VALID,0,VALID,22.8173,VALID,82,VALID,0.480078,
2008-06-20, 01:07:04,VALID,1011.06,VALID,0,VALID,96.1455,VALID,0,VALID,22.8173,VALID,43,VALID,0.491016,
2008-06-20, 01:08:04,VALID,1011.02,VALID,0,VALID,96.1455,VALID,0,VALID,22.8173,VALID,31,VALID,0.374609,
2008-06-20, 01:09:04,VALID,1011.02,VALID,0,VALID,96.1455,VALID,0,VALID,22.8775,VALID,30,VALID,0.282031,
2008-06-20, 01:10:04,VALID,1011,VALID,0,VALID,96.1608,VALID,0,VALID,22.8173,VALID,53,VALID,0.530078,
2008-06-20, 01:11:04,VALID,1010.95,VALID,0,VALID,96.1455,VALID,0,VALID,22.8385,VALID,57,VALID,0.517578,
2008-06-20, 01:12:04,VALID,1010.95,VALID,0,VALID,96.1684,VALID,0,VALID,22.8368,VALID,46,VALID,0.417578,
2008-06-20, 01:13:04,VALID,1010.93,VALID,0,VALID,96.1455,VALID,0,VALID,22.8368,VALID,48,VALID,0.216797,
2008-06-20, 01:14:04,VALID,1010.91,VALID,0,VALID,96.1608,VALID,0,VALID,22.8368,VALID,48,VALID,0.00585938,
2008-06-20, 01:15:04,VALID,1010.9,VALID,0,VALID,96.1608,VALID,0,VALID,22.8368,VALID,48,VALID,0.00703125,
2008-06-20, 01:16:04,VALID,1010.92,VALID,0,VALID,96.1608,VALID,0,VALID,22.8385,VALID,48,VALID,0.114844,
2008-06-20, 01:17:04,VALID,1010.9,VALID,0,VALID,96.1684,VALID,0,VALID,22.8173,VALID,48,VALID,0,
2008-06-20, 01:18:04,VALID,1010.88,VALID,0,VALID,96.176,VALID,0,VALID,22.8173,VALID,48,VALID,0.128516,
2008-06-20, 01:19:04,VALID,1010.84,VALID,0,VALID,96.176,VALID,0,VALID,22.858,VALID,39,VALID,0.383984,
2008-06-20, 01:20:04,VALID,1010.85,VALID,0,VALID,96.1836,VALID,0,VALID,22.8368,VALID,39,VALID,0.179688,
2008-06-20, 01:21:04,VALID,1010.8,VALID,0,VALID,96.176,VALID,0,VALID,22.858,VALID,39,VALID,0.237891,
2008-06-20, 01:22:04,VALID,1010.79,VALID,0,VALID,96.1989,VALID,0,VALID,22.8173,VALID,40,VALID,0.18125,
2008-06-20, 01:23:04,VALID,1010.77,VALID,0,VALID,96.1684,VALID,0,VALID,22.858,VALID,30,VALID,0.461719,
2008-06-20, 01:24:04,VALID,1010.74,VALID,0,VALID,96.1684,VALID,0,VALID,22.8562,VALID,28,VALID,0.202344,
2008-06-20, 01:25:04,VALID,1010.73,VALID,0,VALID,96.1836,VALID,0,VALID,22.8173,VALID,28,VALID,0,
2008-06-20, 01:26:04,VALID,1010.7,VALID,0,VALID,96.1913,VALID,0,VALID,22.8173,VALID,28,VALID,0,
2008-06-20, 01:27:04,VALID,1010.73,VALID,0,VALID,96.1989,VALID,0,VALID,22.8173,VALID,28,VALID,0.113672,
2008-06-20, 01:28:04,VALID,1010.69,VALID,0,VALID,96.1989,VALID,0,VALID,22.8173,VALID,28,VALID,0.0289063,
2008-06-20, 01:29:04,VALID,1010.7,VALID,0,VALID,96.1913,VALID,0,VALID,22.8385,VALID,28,VALID,0,
2008-06-20, 01:30:04,VALID,1010.67,VALID,0,VALID,96.1836,VALID,0,VALID,22.819,VALID,28,VALID,0,
2008-06-20, 01:31:04,VALID,1010.67,VALID,0,VALID,96.2065,VALID,0,VALID,22.819,VALID,28,VALID,0,
2008-06-20, 01:32:04,VALID,1010.64,VALID,0,VALID,96.1913,VALID,0,VALID,22.8173,VALID,28,VALID,0,
2008-06-20, 01:33:04,VALID,1010.6,VALID,0,VALID,96.2065,VALID,0,VALID,22.819,VALID,28,VALID,0.271875,
2008-06-20, 01:34:04,VALID,1010.6,VALID,0,VALID,96.2141,VALID,0,VALID,22.8385,VALID,28,VALID,0.326953,
2008-06-20, 01:35:04,VALID,1010.58,VALID,0,VALID,96.2065,VALID,0,VALID,22.8385,VALID,28,VALID,0.1625,
2008-06-20, 01:36:04,VALID,1010.59,VALID,0,VALID,96.1913,VALID,0,VALID,22.7978,VALID,28,VALID,0.101953,
2008-06-20, 01:37:04,VALID,1010.59,VALID,0,VALID,96.2065,VALID,0,VALID,22.7978,VALID,28,VALID,0.160547,
2008-06-20, 01:38:04,VALID,1010.57,VALID,0,VALID,96.1989,VALID,0,VALID,22.819,VALID,28,VALID,0.00742187,
2008-06-20, 01:39:04,VALID,1010.57,VALID,0,VALID,96.2141,VALID,0,VALID,22.7995,VALID,28,VALID,0,
2008-06-20, 01:40:04,VALID,1010.51,VALID,0,VALID,96.1989,VALID,0,VALID,22.7783,VALID,28,VALID,0.090625,
2008-06-20, 01:41:04,VALID,1010.51,VALID,0,VALID,96.2141,VALID,0,VALID,22.7995,VALID,28,VALID,0.0449219,
2008-06-20, 01:42:04,VALID,1010.48,VALID,0,VALID,96.2065,VALID,0,VALID,22.7995,VALID,28,VALID,0.00078125,
2008-06-20, 01:43:04,VALID,1010.51,VALID,0,VALID,96.2065,VALID,0,VALID,22.7588,VALID,28,VALID,0,
2008-06-20, 01:44:04,VALID,1010.48,VALID,0,VALID,96.2065,VALID,0,VALID,22.7588,VALID,28,VALID,0,
2008-06-20, 01:45:04,VALID,1010.5,VALID,0,VALID,96.2218,VALID,0,VALID,22.7588,VALID,28,VALID,0,
2008-06-20, 01:46:04,VALID,1010.48,VALID,0,VALID,96.2218,VALID,0,VALID,22.7394,VALID,28,VALID,0,
2008-06-20, 01:47:04,VALID,1010.48,VALID,0,VALID,96.2218,VALID,0,VALID,22.78,VALID,28,VALID,0,
2008-06-20, 01:48:04,VALID,1010.44,VALID,0,VALID,96.2065,VALID,0,VALID,22.7783,VALID,28,VALID,0.303906,
2008-06-20, 01:49:04,VALID,1010.44,VALID,0,VALID,96.2294,VALID,0,VALID,22.7394,VALID,28,VALID,0.1,
2008-06-20, 01:50:04,VALID,1010.47,VALID,0,VALID,96.2218,VALID,0,VALID,22.7394,VALID,28,VALID,0.255469,
2008-06-20, 01:51:04,VALID,1010.45,VALID,0,VALID,96.2294,VALID,0,VALID,22.7394,VALID,28,VALID,0.125781,
2008-06-20, 01:52:04,VALID,1010.46,VALID,0,VALID,96.2294,VALID,0,VALID,22.7394,VALID,28,VALID,0.142578,
2008-06-20, 01:53:04,VALID,1010.44,VALID,0,VALID,96.237,VALID,0,VALID,22.7588,VALID,28,VALID,0.0429688,
2008-06-20, 01:54:04,VALID,1010.44,VALID,0,VALID,96.237,VALID,0,VALID,22.7588,VALID,28,VALID,0.0046875,
2008-06-20, 01:55:04,VALID,1010.44,VALID,0,VALID,96.2294,VALID,0,VALID,22.7588,VALID,28,VALID,0.0898438,
2008-06-20, 01:56:04,VALID,1010.4,VALID,0,VALID,96.2141,VALID,0,VALID,22.7606,VALID,28,VALID,0.293359,
2008-06-20, 01:57:04,VALID,1010.38,VALID,0,VALID,96.2218,VALID,0,VALID,22.7199,VALID,28,VALID,0.235547,
2008-06-20, 01:58:04,VALID,1010.37,VALID,0,VALID,96.2141,VALID,0,VALID,22.7411,VALID,28,VALID,0.189453,
2008-06-20, 01:59:04,VALID,1010.32,VALID,0,VALID,96.2218,VALID,0,VALID,22.7199,VALID,28,VALID,0.0160156,
2008-06-20, 02:00:04,VALID,1010.33,VALID,0,VALID,96.2141,VALID,0,VALID,22.7199,VALID,28,VALID,0.0132813,
2008-06-20, 02:01:04,VALID,1010.32,VALID,0,VALID,96.2218,VALID,0,VALID,22.7411,VALID,28,VALID,0,
2008-06-20, 02:02:04,VALID,1010.27,VALID,0,VALID,96.237,VALID,0,VALID,22.7199,VALID,28,VALID,0,
2008-06-20, 02:03:04,VALID,1010.27,VALID,0,VALID,96.2446,VALID,0,VALID,22.7588,VALID,28,VALID,0,
2008-06-20, 02:04:04,VALID,1010.25,VALID,0,VALID,96.2294,VALID,0,VALID,22.7394,VALID,28,VALID,0,
2008-06-20, 02:05:04,VALID,1010.26,VALID,0,VALID,96.237,VALID,0,VALID,22.7394,VALID,28,VALID,0,
2008-06-20, 02:06:04,VALID,1010.27,VALID,0,VALID,96.2141,VALID,0,VALID,22.7199,VALID,28,VALID,0,
2008-06-20, 02:07:04,VALID,1010.24,VALID,0,VALID,96.2523,VALID,0,VALID,22.7004,VALID,28,VALID,0,
2008-06-20, 02:08:04,VALID,1010.23,VALID,0,VALID,96.2446,VALID,0,VALID,22.7199,VALID,28,VALID,0,
2008-06-20, 02:09:04,VALID,1010.2,VALID,0,VALID,96.2523,VALID,0,VALID,22.7606,VALID,28,VALID,0.00117188,
2008-06-20, 02:10:04,VALID,1010.19,VALID,0,VALID,96.2218,VALID,0,VALID,22.7199,VALID,28,VALID,0.09375,
2008-06-20, 02:11:04,VALID,1010.16,VALID,0,VALID,96.2218,VALID,0,VALID,22.7004,VALID,28,VALID,0.0257812,
2008-06-20, 02:12:04,VALID,1010.12,VALID,0,VALID,96.237,VALID,0,VALID,22.7004,VALID,28,VALID,0,
2008-06-20, 02:13:04,VALID,1010.16,VALID,0,VALID,96.2294,VALID,0,VALID,22.7004,VALID,28,VALID,0,
2008-06-20, 02:14:04,VALID,1010.15,VALID,0,VALID,96.237,VALID,0,VALID,22.7588,VALID,28,VALID,0,
2008-06-20, 02:15:04,VALID,1010.16,VALID,0,VALID,96.2141,VALID,0,VALID,22.7588,VALID,28,VALID,0,
2008-06-20, 02:16:04,VALID,1010.15,VALID,0,VALID,96.237,VALID,0,VALID,22.7394,VALID,28,VALID,0,
2008-06-20, 02:17:04,VALID,1010.15,VALID,0,VALID,96.237,VALID,0,VALID,22.7588,VALID,28,VALID,0,
2008-06-20, 02:18:04,VALID,1010.14,VALID,0,VALID,96.237,VALID,0,VALID,22.7588,VALID,87,VALID,0.307031,
2008-06-20, 02:19:04,VALID,1010.15,VALID,0,VALID,96.237,VALID,0,VALID,22.7588,VALID,89,VALID,0.266797,
2008-06-20, 02:20:04,VALID,1010.12,VALID,0,VALID,96.2446,VALID,0,VALID,22.7995,VALID,89,VALID,0.237109,
2008-06-20, 02:21:04,VALID,1010.13,VALID,0,VALID,96.2218,VALID,0,VALID,22.7766,VALID,89,VALID,0.332031,
2008-06-20, 02:22:04,VALID,1010.13,VALID,0,VALID,96.2294,VALID,0,VALID,22.8173,VALID,87,VALID,0.383203,
2008-06-20, 02:23:04,VALID,1010.14,VALID,0,VALID,96.2294,VALID,0,VALID,22.8173,VALID,86,VALID,0.365234,
2008-06-20, 02:24:04,VALID,1010.12,VALID,0,VALID,96.2218,VALID,0,VALID,22.8385,VALID,86,VALID,0.207422,
2008-06-20, 02:25:04,VALID,1010.12,VALID,0,VALID,96.2141,VALID,0,VALID,22.7978,VALID,86,VALID,0.260547,
2008-06-20, 02:26:04,VALID,1010.13,VALID,0,VALID,96.2065,VALID,0,VALID,22.7978,VALID,49,VALID,0.182422,
2008-06-20, 02:27:04,VALID,1010.12,VALID,0,VALID,96.2141,VALID,0,VALID,22.7978,VALID,49,VALID,0.309375,
2008-06-20, 02:28:04,VALID,1010.12,VALID,0,VALID,96.1913,VALID,0,VALID,22.7783,VALID,49,VALID,0.249609,
2008-06-20, 02:29:04,VALID,1010.07,VALID,0,VALID,96.2141,VALID,0.105969,VALID,22.7783,VALID,49,VALID,0.328516,
2008-06-20, 02:30:04,VALID,1010.06,VALID,0,VALID,96.2065,VALID,0,VALID,22.7978,VALID,49,VALID,0.36875,
2008-06-20, 02:31:04,VALID,1010.05,VALID,0,VALID,96.1989,VALID,0.105969,VALID,22.7588,VALID,49,VALID,0.316016,
2008-06-20, 02:32:04,VALID,1010.07,VALID,0,VALID,96.1913,VALID,0,VALID,22.78,VALID,49,VALID,0.258594,
2008-06-20, 02:33:04,VALID,1010.08,VALID,0,VALID,96.1913,VALID,0,VALID,22.7606,VALID,49,VALID,0.182422,
2008-06-20, 02:34:04,VALID,1010.08,VALID,0,VALID,96.1989,VALID,0,VALID,22.7199,VALID,49,VALID,0.315625,
2008-06-20, 02:35:04,VALID,1010.07,VALID,0,VALID,96.2141,VALID,0,VALID,22.7199,VALID,49,VALID,0.234766,
2008-06-20, 02:36:04,VALID,1010.04,VALID,0,VALID,96.2141,VALID,0,VALID,22.7199,VALID,49,VALID,0.321875,
2008-06-20, 02:37:04,VALID,1010.04,VALID,0,VALID,96.2141,VALID,0,VALID,22.7004,VALID,49,VALID,0.257422,
2008-06-20, 02:38:04,VALID,1010.04,VALID,0,VALID,96.1913,VALID,0,VALID,22.7411,VALID,49,VALID,0.328516,
2008-06-20, 02:39:04,VALID,1010.03,VALID,0,VALID,96.2065,VALID,0,VALID,22.7004,VALID,49,VALID,0.326562,
2008-06-20, 02:40:04,VALID,1010.05,VALID,0,VALID,96.2218,VALID,0,VALID,22.7021,VALID,49,VALID,0.212891,
2008-06-20, 02:41:04,VALID,1010.04,VALID,0,VALID,96.2065,VALID,0,VALID,22.7004,VALID,49,VALID,0.23125,
2008-06-20, 02:42:04,VALID,1010.04,VALID,0,VALID,96.2294,VALID,0,VALID,22.6809,VALID,49,VALID,0.125,
2008-06-20, 02:43:04,VALID,1010.05,VALID,0,VALID,96.2218,VALID,0,VALID,22.7004,VALID,49,VALID,0,
2008-06-20, 02:44:04,VALID,1010.07,VALID,0,VALID,96.237,VALID,0,VALID,22.6809,VALID,49,VALID,0,
2008-06-20, 02:45:04,VALID,1010.03,VALID,0,VALID,96.237,VALID,0,VALID,22.7004,VALID,49,VALID,0,
2008-06-20, 02:46:04,VALID,1010.02,VALID,0,VALID,96.237,VALID,0,VALID,22.6809,VALID,49,VALID,0,
2008-06-20, 02:47:04,VALID,1010.01,VALID,0,VALID,96.2446,VALID,0,VALID,22.7004,VALID,49,VALID,0,
2008-06-20, 02:48:04,VALID,1009.99,VALID,0,VALID,96.2218,VALID,0,VALID,22.7199,VALID,49,VALID,0.0292969,
2008-06-20, 02:49:04,VALID,1009.96,VALID,0,VALID,96.2446,VALID,0,VALID,22.7004,VALID,49,VALID,0.277734,
2008-06-20, 02:50:04,VALID,1009.95,VALID,0,VALID,96.2675,VALID,0,VALID,22.7411,VALID,95,VALID,0.50625,
2008-06-20, 02:51:04,VALID,1009.95,VALID,0,VALID,96.2294,VALID,0,VALID,22.7411,VALID,120,VALID,0.683984,
2008-06-20, 02:52:04,VALID,1009.93,VALID,0,VALID,96.2446,VALID,0,VALID,22.7004,VALID,119,VALID,0.602344,
2008-06-20, 02:53:04,VALID,1009.92,VALID,0,VALID,96.237,VALID,0,VALID,22.7411,VALID,102,VALID,0.475781,
2008-06-20, 02:54:04,VALID,1009.87,VALID,0,VALID,96.2218,VALID,0,VALID,22.7182,VALID,102,VALID,0.530859,
2008-06-20, 02:55:04,VALID,1009.9,VALID,0,VALID,96.2141,VALID,0,VALID,22.78,VALID,116,VALID,0.521094,
2008-06-20, 02:56:04,VALID,1009.87,VALID,0,VALID,96.237,VALID,0,VALID,22.7606,VALID,111,VALID,0.496484,
2008-06-20, 02:57:04,VALID,1009.84,VALID,0,VALID,96.2065,VALID,0,VALID,22.7588,VALID,102,VALID,0.549219,
2008-06-20, 02:58:04,VALID,1009.85,VALID,0,VALID,96.1989,VALID,0,VALID,22.7588,VALID,102,VALID,0.570313,
2008-06-20, 02:59:04,VALID,1009.85,VALID,0,VALID,96.237,VALID,0,VALID,22.7588,VALID,100,VALID,0.476953,
2008-06-20, 03:00:04,VALID,1009.87,VALID,0,VALID,96.2065,VALID,0,VALID,22.7783,VALID,90,VALID,0.2625,
2008-06-20, 03:01:04,VALID,1009.89,VALID,0,VALID,96.2141,VALID,0,VALID,22.7978,VALID,90,VALID,0.192188,
2008-06-20, 03:02:04,VALID,1009.88,VALID,0,VALID,96.2218,VALID,0,VALID,22.8173,VALID,123,VALID,0.491797,
2008-06-20, 03:03:04,VALID,1009.86,VALID,0,VALID,96.1836,VALID,0,VALID,22.7978,VALID,123,VALID,0.334375,
2008-06-20, 03:04:04,VALID,1009.88,VALID,0,VALID,96.1836,VALID,0,VALID,22.7978,VALID,82,VALID,0.575,
2008-06-20, 03:05:04,VALID,1009.9,VALID,0,VALID,96.1913,VALID,0,VALID,22.7978,VALID,81,VALID,0.311719,
2008-06-20, 03:06:04,VALID,1009.88,VALID,0,VALID,96.1836,VALID,0,VALID,22.7978,VALID,81,VALID,0.276172,
2008-06-20, 03:07:04,VALID,1009.89,VALID,0,VALID,96.176,VALID,0,VALID,22.7588,VALID,77,VALID,0.262891,
2008-06-20, 03:08:04,VALID,1009.93,VALID,0,VALID,96.1608,VALID,0,VALID,22.7394,VALID,68,VALID,0.210156,
2008-06-20, 03:09:04,VALID,1009.93,VALID,0,VALID,96.1608,VALID,0,VALID,22.7394,VALID,45,VALID,0.466797,
2008-06-20, 03:10:04,VALID,1009.93,VALID,0,VALID,96.1608,VALID,0,VALID,22.7411,VALID,45,VALID,0.235156,
2008-06-20, 03:11:04,VALID,1009.9,VALID,0,VALID,96.176,VALID,0,VALID,22.7199,VALID,34,VALID,0.415234,
2008-06-20, 03:12:04,VALID,1009.89,VALID,0,VALID,96.1684,VALID,0,VALID,22.7004,VALID,38,VALID,0.458984,
2008-06-20, 03:13:04,VALID,1009.9,VALID,0,VALID,96.176,VALID,0,VALID,22.6809,VALID,43,VALID,0.372656,
2008-06-20, 03:14:04,VALID,1009.91,VALID,0,VALID,96.176,VALID,0,VALID,22.6809,VALID,43,VALID,0.230469,
2008-06-20, 03:15:04,VALID,1009.91,VALID,0,VALID,96.176,VALID,0,VALID,22.6809,VALID,43,VALID,0.241797,
2008-06-20, 03:16:04,VALID,1009.9,VALID,0,VALID,96.1836,VALID,0,VALID,22.6614,VALID,43,VALID,0.0746094,
2008-06-20, 03:17:04,VALID,1009.88,VALID,0,VALID,96.1913,VALID,0,VALID,22.6614,VALID,43,VALID,0.00117188,
2008-06-20, 03:18:04,VALID,1009.9,VALID,0,VALID,96.1836,VALID,0,VALID,22.6826,VALID,51,VALID,0.286719,
2008-06-20, 03:19:04,VALID,1009.91,VALID,0,VALID,96.2065,VALID,0,VALID,22.6614,VALID,52,VALID,0.230859,
2008-06-20, 03:20:04,VALID,1009.86,VALID,0,VALID,96.1913,VALID,0,VALID,22.6826,VALID,52,VALID,0.0867188,
2008-06-20, 03:21:04,VALID,1009.85,VALID,0,VALID,96.2065,VALID,0,VALID,22.6809,VALID,95,VALID,0.516797,
2008-06-20, 03:22:04,VALID,1009.82,VALID,0,VALID,96.1836,VALID,0,VALID,22.6614,VALID,96,VALID,0.80625,
2008-06-20, 03:23:04,VALID,1009.81,VALID,0,VALID,96.1913,VALID,0,VALID,22.6614,VALID,95,VALID,0.702734,
2008-06-20, 03:24:04,VALID,1009.81,VALID,0,VALID,96.1989,VALID,0,VALID,22.6809,VALID,81,VALID,0.907422,
2008-06-20, 03:25:04,VALID,1009.8,VALID,0,VALID,96.1989,VALID,0,VALID,22.7004,VALID,103,VALID,0.657422,
2008-06-20, 03:26:04,VALID,1009.83,VALID,0,VALID,96.1913,VALID,0,VALID,22.6809,VALID,93,VALID,0.844922,
2008-06-20, 03:27:04,VALID,1009.82,VALID,0,VALID,96.1836,VALID,0,VALID,22.6809,VALID,93,VALID,0.627344,
2008-06-20, 03:28:04,VALID,1009.82,VALID,0,VALID,96.1913,VALID,0,VALID,22.7216,VALID,93,VALID,0.402344,
2008-06-20, 03:29:04,VALID,1009.84,VALID,0,VALID,96.1913,VALID,0,VALID,22.7004,VALID,88,VALID,0.383984,
2008-06-20, 03:30:04,VALID,1009.86,VALID,0,VALID,96.1989,VALID,0,VALID,22.6809,VALID,93,VALID,0.207031,
2008-06-20, 03:31:04,VALID,1009.85,VALID,0,VALID,96.2141,VALID,0,VALID,22.7199,VALID,94,VALID,0.384766,
2008-06-20, 03:32:04,VALID,1009.87,VALID,0,VALID,96.1913,VALID,0,VALID,22.7199,VALID,135,VALID,0.418359,
2008-06-20, 03:33:04,VALID,1009.86,VALID,0,VALID,96.176,VALID,0,VALID,22.7394,VALID,104,VALID,0.414844,
2008-06-20, 03:34:04,VALID,1009.88,VALID,0,VALID,96.1913,VALID,0,VALID,22.7199,VALID,107,VALID,0.369922,
2008-06-20, 03:35:04,VALID,1009.9,VALID,0,VALID,96.1913,VALID,0,VALID,22.7411,VALID,107,VALID,0.331641,
2008-06-20, 03:36:04,VALID,1009.91,VALID,0,VALID,96.1836,VALID,0,VALID,22.7199,VALID,125,VALID,0.430469,
2008-06-20, 03:37:04,VALID,1009.93,VALID,0,VALID,96.176,VALID,0.105969,VALID,22.7199,VALID,120,VALID,0.66875,
2008-06-20, 03:38:04,VALID,1009.96,VALID,0,VALID,96.1836,VALID,0,VALID,22.7394,VALID,122,VALID,0.454688,
2008-06-20, 03:39:04,VALID,1009.98,VALID,0,VALID,96.1836,VALID,0,VALID,22.7199,VALID,154,VALID,0.712109,
2008-06-20, 03:40:04,VALID,1009.96,VALID,0,VALID,96.1684,VALID,0,VALID,22.7004,VALID,154,VALID,0.694922,
2008-06-20, 03:41:04,VALID,1009.96,VALID,0,VALID,96.1684,VALID,0,VALID,22.6614,VALID,150,VALID,0.746875,
2008-06-20, 03:42:04,VALID,1009.95,VALID,0,VALID,96.1531,VALID,0,VALID,22.6809,VALID,147,VALID,0.755859,
2008-06-20, 03:43:04,VALID,1009.97,VALID,0,VALID,96.1684,VALID,0,VALID,22.6809,VALID,127,VALID,0.298828,
2008-06-20, 03:44:04,VALID,1009.99,VALID,0,VALID,96.1684,VALID,0,VALID,22.6614,VALID,127,VALID,0.253516,
2008-06-20, 03:45:04,VALID,1010.04,VALID,0,VALID,96.176,VALID,0,VALID,22.6614,VALID,138,VALID,0.523438,
2008-06-20, 03:46:04,VALID,1010.08,VALID,0,VALID,96.1836,VALID,0,VALID,22.6614,VALID,138,VALID,0.282422,
2008-06-20, 03:47:04,VALID,1010.06,VALID,0,VALID,96.176,VALID,0,VALID,22.6614,VALID,138,VALID,0.263672,